Dewpoint
33 28 28 28 28 28 26 26 25 25 26 25 24 25 24 24 24 23 22 20 19 20 25 37 51 55 56 58 59 60 59 58 56 57 57 57 58 58 57 56 55 55 56 56
28 27 30 30 28 27 27 26 25 26 27 25 24 22 23 24 24 24 23 22 20 19 22 34 45 53 55 57 59 59 59 59 57 56 56 56 56 57 57 55 55 55 55 56
28 29 30 29 27 26 25 25 26 26 27 25 23 19 21 22 21 23 24 24 23 21 20 24 30 47 54 56 58 59 59 59 58 57 55 55 55 56 56 55 54 55 55 55
30 32 29 28 26 29 24 29 28 26 25 21 24 14 19 21 24 29 31 31 32 32 33 32 30 33 51 55 57 59 59 59 59 59 57 55 55 53 55 55 55 54 55 55
28 30 29 27 29 31 27 30 28 28 25 24 21 20 18 21 23 28 29 31 32 34 35 36 37 38 38 42 56 57 59 59 59 59 58 56 55 55 55 55 55 54 55 55
31 34 32 31 31 32 31 29 25 27 24 15 19 20 19 27 28 29 31 32 33 34 36 36 37 40 43 45 46 54 57 58 59 59 59 58 57 56 56 57 56 55 54 55
24 29 33 32 28 30 30 23 16 15 14 14 21 19 22 29 31 31 31 32 32 33 34 36 38 38 39 41 43 45 51 57 58 59 59 58 58 57 57 56 56 56 55 54
21 18 30 32 31 30 30 28 20 11 15 16 20 15 25 30 31 32 31 30 31 31 33 35 36 38 38 39 41 44 46 47 57 58 58 59 58 58 57 57 56 56 56 55
22 20 25 33 33 33 29 26 32 24 19 19 18 19 28 28 29 30 29 30 31 31 33 34 36 35 37 38 40 42 45 47 49 57 58 58 58 58 58 57 57 57 57 57
26 19 23 30 32 33 31 33 24 22 15 11 14 17 21 26 27 30 28 30 31 32 32 34 33 34 36 36 38 41 44 46 51 55 57 58 58 58 58 58 57 58 58 58
30 24 20 25 29 27 30 28 27 28 24 18 14 16 30 27 29 29 29 30 30 31 31 33 31 32 33 35 37 39 42 45 50 56 57 57 57 58 58 58 58 58 59 58
31 27 20 20 29 31 31 27 28 23 20 23 20 19 31 31 31 31 30 31 32 32 32 32 32 31 31 33 36 37 39 42 45 50 56 56 56 57 57 58 58 59 58 58
28 25 18 17 25 26 27 27 28 29 27 21 20 19 31 31 30 31 30 31 31 32 32 31 31 31 31 32 34 35 36 38 41 43 44 45 46 47 49 49 49 52 56 59
31 25 22 17 19 28 26 27 28 27 20 21 21 23 26 27 29 30 31 31 31 31 31 31 31 31 31 31 33 33 34 35 37 39 39 39 40 42 44 45 45 45 46 47
28 21 24 25 25 26 27 26 28 25 25 21 22 23 27 29 29 30 31 31 30 30 29 29 30 30 30 30 31 32 33 33 34 34 35 35 37 37 39 40 41 42 42 43
27 20 23 22 27 27 25 26 29 25 24 27 26 25 30 32 33 29 28 30 29 29 29 30 29 29 29 29 30 31 31 31 32 32 32 33 34 34 36 36 37 37 37 38
22 22 20 18 22 25 20 24 26 26 27 26 23 24 30 30 31 26 26 28 29 29 29 29 29 29 28 29 29 29 29 30 30 30 31 31 32 32 33 34 34 34 35 36
23 22 22 20 20 15 19 30 27 26 27 28 28 29 31 32 33 26 27 27 26 28 28 28 29 28 28 28 28 29 28 29 29 28 29 30 31 31 32 32 32 33 33 33
24 23 20 19 18 19 23 29 29 27 25 29 29 30 32 34 35 29 26 27 26 25 26 27 27 26 25 26 26 27 27 27 27 27 28 29 30 30 30 30 31 31 31 31
25 25 20 19 15 12 20 30 31 29 22 30 30 30 31 27 23 20 26 27 26 25 26 26 26 25 24 24 25 25 25 25 25 26 27 28 29 29 30 30 30 30 30 29
20 20 17 17 17 17 23 31 32 22 18 31 31 31 28 22 21 24 26 26 26 24 26 26 25 24 23 23 24 24 23 23 24 26 27 27 28 29 29 29 29 28 28 28
11 12 15 17 16 2 31 32 24 25 31 31 32 31 28 24 26 26 25 25 25 23 25 25 24 23 22 22 22 22 22 22 23 25 25 26 27 28 29 28 28 28 27 26
-3 9 10 17 7 19 33 27 31 31 31 31 31 29 29 26 25 26 26 25 24 23 24 24 23 22 20 19 20 21 20 21 22 23 24 25 26 27 28 27 26 26 25 25
14 18 16 13 8 21 29 32 30 31 30 30 30 29 30 27 26 26 26 25 24 23 21 23 23 21 20 17 17 17 18 19 22 22 23 24 26 26 26 27 26 25 24 23
9 18 14 14 13 16 18 27 30 30 30 29 29 29 29 29 26 26 26 25 24 23 20 22 23 20 18 15 16 15 16 18 21 21 23 24 25 25 25 25 26 24 24 24
18 11 2 -8 3 -0 -6 8 27 29 29 29 28 28 28 28 26 25 25 25 24 22 19 20 22 19 17 15 16 15 14 16 19 21 23 23 23 23 24 23 22 23 23 22
Wind_Speed
6 14 13 10 6 2 2 4 8 10 7 9 6 19 22 25 19 16 13 10 11 13 12 12 17 15 13 18 20 23 23 22 21 20 20 19 21 16 16 16 17 22 20 20
6 14 10 6 2 5 5 7 8 10 11 9 14 19 14 14 17 17 10 12 10 12 11 11 11 14 16 22 24 21 24 21 23 22 19 16 17 13 17 16 17 19 18 18
8 6 5 7 6 8 4 4 7 7 15 4 18 2 13 10 16 25 17 14 15 15 18 10 11 11 17 19 22 23 25 23 21 20 16 7 8 6 12 15 17 19 21 22
4 6 9 5 6 11 6 7 9 11 12 5 5 2 8 15 20 26 24 22 22 23 23 22 25 22 12 19 15 18 21 20 20 17 18 21 20 20 18 17 15 18 20 21
1 5 8 6 6 8 2 11 10 5 4 4 3 2 4 12 16 25 25 25 24 22 21 21 20 20 22 19 14 20 18 16 19 19 21 23 21 21 18 14 18 19 20 21
3 4 2 3 7 4 11 7 5 3 3 3 3 1 5 7 8 16 24 23 23 25 24 22 19 17 21 24 20 16 15 22 23 22 24 24 24 20 16 17 18 19 18 20
8 3 1 2 4 3 16 9 4 2 5 2 3 2 1 3 7 11 19 23 25 21 22 25 24 24 18 21 25 20 18 17 19 23 23 23 25 23 22 22 22 21 22 21
7 2 8 6 4 4 5 5 3 4 4 6 6 3 5 3 3 12 15 18 20 23 23 22 23 22 21 17 19 23 20 19 18 21 25 26 27 23 24 21 21 21 22 23
5 2 5 6 4 3 5 3 2 2 0 2 4 1 5 24 17 23 30 25 25 25 24 24 24 22 21 21 18 19 22 20 20 23 24 26 25 25 22 23 19 19 19 18
1 3 2 5 1 4 1 5 2 3 4 4 4 3 7 24 28 26 26 24 22 22 23 22 20 21 20 20 19 17 17 21 25 24 25 23 23 23 22 19 21 19 17 18
1 1 3 3 5 4 3 3 2 3 3 2 5 1 7 11 16 20 21 22 23 23 23 20 18 18 18 18 20 19 17 18 18 15 20 20 19 20 19 20 20 21 18 18
0 1 3 1 4 2 1 2 3 3 3 3 1 3 8 10 13 13 16 17 19 18 21 20 17 17 19 20 21 20 19 18 13 13 6 4 1 12 17 18 18 17 20 19
3 1 5 2 1 1 1 1 1 4 3 6 4 3 7 9 10 11 14 16 15 17 18 19 20 22 23 24 21 20 20 19 14 17 17 18 16 11 12 11 16 12 6 16
4 1 3 4 5 2 8 3 1 3 3 5 6 5 10 10 12 13 13 14 16 16 19 21 21 23 25 24 22 20 20 18 18 20 23 23 19 15 13 12 15 17 15 16
1 2 2 13 17 14 16 14 9 4 6 5 2 1 2 3 7 9 10 11 13 17 21 22 24 23 23 25 25 20 18 20 20 22 24 21 18 17 15 18 16 15 17 15
0 2 4 5 3 5 7 8 11 5 5 6 5 4 7 7 7 7 9 13 14 15 17 19 22 25 25 23 21 20 20 19 19 21 23 19 20 18 16 17 14 16 15 16
3 0 2 4 7 10 5 7 12 4 5 4 9 8 11 6 5 5 7 9 12 13 14 17 17 18 20 21 22 20 16 16 16 22 21 19 18 18 18 18 15 17 16 14
4 3 2 4 8 2 2 2 6 7 8 11 9 8 10 10 5 1 1 2 5 8 10 11 11 13 14 18 21 20 19 20 18 18 18 21 19 18 14 15 17 17 16 17
4 3 2 1 4 9 3 6 8 8 5 18 15 12 13 11 5 8 4 3 2 1 4 7 9 9 12 12 13 13 15 19 21 22 20 20 16 17 15 19 17 16 16 17
4 5 1 2 2 4 3 5 6 5 8 22 21 16 12 5 4 5 8 6 4 1 2 5 8 9 11 14 14 11 14 14 17 15 14 13 13 15 15 17 18 17 16 15
6 4 8 7 6 10 7 11 7 2 3 21 23 16 14 10 9 4 7 5 3 2 3 3 5 7 10 12 11 13 14 18 15 14 13 15 16 15 16 17 17 16 16 16
12 13 9 6 5 7 13 9 9 6 3 19 20 17 15 10 9 9 9 7 5 4 2 1 2 6 10 12 11 13 16 13 13 13 14 15 16 15 13 13 13 14 14 14
9 10 8 16 9 3 26 8 16 10 11 12 18 12 13 11 11 10 8 8 7 6 5 2 2 5 9 12 12 13 14 14 14 15 15 15 14 13 12 13 14 14 15 15
9 9 6 2 9 23 21 19 8 13 12 13 14 14 14 14 12 11 8 8 8 7 8 5 2 3 6 9 10 9 10 10 10 12 13 12 13 13 13 11 13 14 16 15
8 16 11 10 17 8 16 24 23 16 13 10 11 14 17 14 13 13 12 11 9 9 7 7 6 3 2 4 6 8 9 8 9 10 11 11 10 11 11 12 11 11 12 14
14 13 16 18 17 15 7 20 25 27 25 22 20 15 13 15 16 13 12 10 11 12 9 9 7 6 4 0 2 5 7 7 7 10 8 7 6 7 8 8 10 11 9 14
Wind_Direction
23 73 32 2 39 101 348 313 302 292 327 333 329 312 300 295 301 291 294 298 303 313 305 260 233 222 213 204 195 195 187 185 173 177 185 187 195 188 190 193 189 186 188 180
66 48 2 356 350 7 359 338 336 308 357 349 349 307 313 311 279 276 266 286 303 309 317 308 275 220 202 203 204 197 199 189 188 187 188 193 188 192 191 187 192 191 191 183
82 32 27 25 4 359 329 7 348 330 343 76 356 310 354 356 26 41 30 9 8 359 352 345 306 255 217 209 206 201 205 202 194 190 178 162 150 157 179 196 194 195 192 197
47 16 31 10 50 4 327 348 328 335 2 340 350 228 3 3 35 29 18 17 10 8 9 13 13 348 301 226 216 218 204 198 200 186 184 181 195 199 196 198 200 196 198 202
19 16 16 33 354 343 310 313 306 299 311 341 344 93 347 12 18 1 358 359 2 3 5 2 2 350 354 352 268 217 213 213 203 198 193 195 204 205 205 196 198 200 200 202
297 295 347 326 331 15 331 336 355 48 41 60 299 174 13 26 352 346 349 353 353 351 351 348 352 357 355 350 357 323 256 210 201 199 202 200 203 202 197 191 196 203 207 208
341 14 342 358 358 4 14 12 358 34 29 101 106 341 46 67 21 8 342 339 343 348 347 343 347 346 349 345 337 338 330 251 220 202 205 206 209 202 203 204 205 211 210 207
34 39 10 357 56 331 352 7 51 4 356 307 297 241 141 21 37 0 345 338 342 341 342 338 336 336 335 334 329 324 326 318 254 221 207 212 214 213 214 208 213 218 214 211
6 291 310 53 20 33 344 44 354 304 256 292 289 11 217 355 358 1 1 349 342 340 339 338 333 326 329 328 328 315 312 303 293 232 222 213 216 213 214 215 214 218 218 216
202 328 323 315 75 58 69 321 34 34 357 315 288 324 331 350 347 344 345 345 344 343 340 338 333 333 331 329 327 323 312 300 288 238 222 219 214 214 218 215 218 220 223 221
88 109 317 334 31 13 355 33 292 280 210 280 310 28 7 345 334 335 344 346 348 346 345 339 336 337 337 337 343 337 337 326 322 240 217 213 215 216 217 221 218 219 220 215
226 138 301 266 293 310 157 75 5 339 328 259 228 277 3 351 336 347 346 353 349 341 342 335 340 353 355 353 356 346 351 347 342 17 188 159 17 221 214 219 225 222 225 221
202 21 352 30 1 342 145 133 75 265 241 241 241 298 7 8 7 7 355 344 339 338 344 348 357 8 4 1 354 358 4 356 2 51 56 59 54 42 46 61 56 28 309 225
127 175 197 249 269 280 281 252 258 234 238 308 281 316 8 19 13 0 350 350 347 349 355 1 5 10 3 359 355 3 11 9 15 51 54 50 38 38 39 42 51 54 33 33
92 247 238 274 279 280 263 269 252 245 256 237 282 194 354 319 335 327 325 340 354 358 0 2 4 5 3 360 355 359 10 22 22 42 48 40 35 30 29 48 38 46 47 38
304 248 354 301 344 334 288 259 251 229 233 263 186 224 216 250 284 323 347 356 5 357 358 0 7 0 1 355 349 357 10 19 25 41 43 29 33 27 15 37 34 42 40 35
208 194 4 289 323 313 293 251 205 177 210 205 220 217 194 254 281 335 351 0 357 353 1 2 3 354 348 347 347 360 360 21 31 38 36 31 29 25 16 29 16 37 32 33
190 164 213 287 341 301 242 159 183 189 211 218 247 241 224 247 269 275 352 349 340 347 357 359 355 353 348 342 349 351 4 20 29 31 32 35 16 29 15 27 27 26 25 27
205 145 262 279 274 294 254 202 189 193 250 197 215 225 236 250 270 265 207 215 225 284 334 347 351 352 339 349 346 352 5 18 25 26 23 24 11 24 20 34 28 27 29 28
169 90 236 173 231 250 247 184 179 156 277 187 194 205 232 195 222 240 205 195 200 174 45 17 3 4 1 354 346 13 25 28 29 15 18 23 26 35 29 32 33 29 31 26
161 172 220 215 230 275 234 159 155 191 265 179 189 197 201 207 216 169 167 190 191 151 79 57 37 19 4 353 358 29 28 29 8 9 19 31 30 34 36 34 33 31 25 20
181 163 193 189 211 278 157 133 194 210 153 179 189 194 203 213 181 182 190 180 189 181 158 80 62 34 15 8 14 33 35 3 11 18 34 36 30 29 23 32 26 27 26 25
215 199 183 199 222 231 184 191 202 178 171 182 191 200 203 199 202 199 202 187 192 190 190 176 93 41 28 17 19 31 6 4 15 31 34 34 31 27 23 35 35 33 29 25
225 191 234 218 243 228 209 225 216 195 197 192 196 195 190 203 202 209 206 197 193 190 193 175 158 48 34 14 18 14 360 0 18 37 41 36 42 38 29 31 38 39 31 23
204 157 202 248 269 272 254 231 218 208 203 195 197 198 202 198 203 202 206 207 206 199 179 182 186 155 85 0 15 2 359 9 41 48 44 40 32 32 30 33 36 50 46 35
189 190 191 225 208 194 223 219 206 204 207 202 190 194 201 201 206 201 208 202 198 197 183 182 187 178 190 181 3 5 1 16 60 72 69 64 64 51 38 33 23 29 45 43